Погода в Маджуро

Маршалловы острова     7°04′33″N   171°19′35″E
темп.,
°C
ветер,
м/с
пор.,
м/с
влажн.,
%
обл.,
%
осадки,
мм/ч
давл.,
гПа
погр.,
м
28 ноября, вс
вс2800:00+28в9108099 2.7 1010882
03:00+27в9108250 1.9 1008845
06:00+28в9117973 2.7 10091002
09:00+28в101179100 1.8 1011979
12:00+28в91179100 2.4 1010909
15:00+28в91079100 0.4 1007941
18:00+28в91079100 1.1 1008982
21:00+28в8978100 0.8 1010972
29 ноября, пн
пн2900:00+28в8979100 2.4 1009877
03:00+28всв8979100 0.9 1008837
06:00+28всв91080100 2.0 1008878
09:00+28всв91079100 1.0 1010937
12:00+28всв8107892 1.4 1008946
15:00+28всв79786 0.7 1006896
18:00+28всв897811 1.8 1007863
21:00+28всв89795 0.1 1009912
30 ноября, вт
вт3000:00+28всв810795 0.3 1008886
03:00+28всв88805 1.5 1007759
06:00+27всв89815 7.7 1008684
09:00+28всв898083 6.5 1010756
12:00+28всв9107968 14.3 1008691
15:00+27всв91080100 9.1 1006793
18:00+27всв101183100 18.5 1007699
21:00+28всв9108065 7.7 1009846
1 декабря, ср
ср100:00+28всв9108026 10.9 1008874
03:00+27всв9108195 1.2 1006841
06:00+27в91081100 2.6 1008791
09:00+27в9108197 0.0 1009721
12:00+27в898097 0.0 1008857
15:00+27всв898099 1.8 1006796
18:00+28всв897999 3.4 1008892
21:00+27в898113 2.0 1010752
2 декабря, чт
чт200:00+27в887856 3.6 1009787
03:00+27в677792 0.1 1007809
06:00+28в5577100 0.4 1008765
09:00+28вюв557721 0.1 1009743
12:00+28юв447624 0.1 1008753
15:00+28ююв4476100 0.0 1005777
18:00+28юв3375100 0.2 1006575
21:00+28ююв227498 1.2 1008402